Total_Precipitation_Accumulation
0.73 0.78 0.89 1.07 1.29 1.32 1.22 1.10 0.98 0.98 0.98 0.97 1.01 1.05 1.05 1.02 0.99 1.03 0.98 0.89 0.89 0.89 0.91 0.95 0.95 0.98 1.02 0.97 0.99 1.03 1.03 1.10 1.10 0.66 0.52 0.55 0.72 0.80 0.78 0.74 0.80 0.85 0.88
0.70 0.73 0.82 0.92 1.10 1.32 1.27 1.13 1.01 0.96 0.96 0.98 0.97 1.01 1.02 1.05 1.04 1.04 0.99 0.92 0.91 0.89 0.89 0.88 0.88 0.90 0.96 0.93 0.93 0.93 0.91 0.88 0.92 0.76 0.53 0.53 0.61 0.70 0.80 0.87 0.85 0.83 0.82
0.69 0.74 0.76 0.85 0.94 1.05 1.20 1.16 1.06 0.99 0.96 0.97 0.98 1.00 1.06 1.09 1.08 1.01 1.00 0.94 0.89 0.89 0.90 0.90 0.87 0.90 0.94 0.90 0.92 0.88 0.80 0.75 0.78 0.80 0.63 0.55 0.58 0.64 0.81 0.95 0.94 0.93 0.89
0.63 0.70 0.70 0.72 0.79 0.85 0.97 1.15 1.17 1.08 0.98 0.91 0.91 0.96 1.06 1.23 1.26 1.18 1.20 1.08 0.95 0.88 0.84 0.83 0.87 0.97 0.98 0.97 1.00 0.90 0.84 0.86 0.89 0.93 0.80 0.67 0.70 0.72 0.89 1.10 1.18 1.13 1.08
0.52 0.60 0.66 0.72 0.79 0.82 0.82 0.95 1.14 1.11 0.97 0.88 0.85 0.88 0.98 1.33 1.71 1.69 1.61 1.36 1.06 0.88 0.79 0.79 0.86 1.00 1.05 1.19 1.29 1.16 1.13 1.22 1.20 1.21 1.11 1.00 0.95 0.98 1.07 1.10 1.25 1.27 1.27
0.47 0.54 0.61 0.71 0.84 0.86 0.82 0.86 0.98 1.07 1.02 0.93 0.87 0.85 0.88 1.16 1.76 1.90 1.60 1.20 1.02 0.91 0.84 0.79 0.80 0.92 0.96 1.06 1.21 1.28 1.35 1.47 1.52 1.51 1.46 1.33 1.11 1.03 1.08 1.22 1.29 1.46 1.52
0.49 0.53 0.59 0.64 0.78 0.85 0.86 0.90 0.95 1.01 1.08 1.08 0.95 0.85 0.82 0.97 1.56 1.70 1.41 1.07 0.93 0.88 0.83 0.81 0.80 0.86 0.93 0.93 1.01 1.04 1.07 1.22 1.45 1.56 1.61 1.29 1.10 1.06 1.26 1.47 1.44 1.51 1.47
0.53 0.58 0.62 0.61 0.66 0.79 0.90 0.91 0.92 0.95 0.99 1.05 1.02 0.93 0.85 0.89 1.39 1.55 1.31 1.04 0.92 0.84 0.78 0.78 0.78 0.80 0.91 1.11 1.08 1.02 0.92 0.94 1.16 1.36 1.59 1.43 1.27 1.32 1.62 1.93 2.03 1.91 1.54
0.61 0.64 0.64 0.59 0.60 0.71 0.80 0.88 0.91 0.92 0.90 0.92 0.94 0.92 0.88 0.85 1.16 1.41 1.27 1.01 0.95 0.87 0.77 0.76 0.77 0.77 0.98 1.25 1.20 1.05 0.88 0.80 0.91 1.23 1.53 1.66 1.69 1.80 2.03 2.34 2.52 2.35 1.91
0.58 0.65 0.60 0.54 0.52 0.53 0.63 0.79 0.87 0.89 0.86 0.86 0.87 0.88 0.82 0.75 0.96 1.22 1.24 1.00 0.93 0.89 0.84 0.78 0.86 0.95 1.10 1.25 1.15 1.11 1.18 0.97 0.86 0.91 0.99 1.13 1.23 1.38 1.72 2.01 2.29 2.37 2.05
0.57 0.64 0.58 0.53 0.53 0.54 0.60 0.73 0.82 0.91 0.93 0.87 0.83 0.84 0.80 0.77 0.87 1.05 1.25 1.06 0.92 0.88 0.88 0.83 0.80 1.00 1.08 1.15 1.20 1.16 1.38 1.29 1.07 1.07 1.02 0.99 0.99 1.12 1.32 1.61 1.99 2.27 2.27
0.59 0.57 0.57 0.58 0.57 0.59 0.62 0.71 0.82 0.92 0.98 0.92 0.83 0.81 0.79 0.79 0.87 1.01 1.19 1.20 1.09 0.91 0.83 0.73 0.76 0.98 1.05 1.14 1.12 1.19 1.31 1.28 1.12 1.05 0.96 0.91 0.95 1.03 1.14 1.31 1.62 1.86 1.95
0.55 0.54 0.55 0.59 0.58 0.61 0.66 0.73 0.82 0.91 0.95 0.93 0.84 0.79 0.77 0.74 0.86 1.08 1.05 1.10 1.14 0.96 0.83 0.91 0.97 1.06 1.06 0.98 1.02 1.11 1.10 1.05 1.14 1.13 0.98 0.89 0.93 1.07 1.14 1.19 1.33 1.59 1.75
0.47 0.51 0.51 0.57 0.62 0.65 0.70 0.73 0.79 0.89 0.97 0.88 0.80 0.75 0.71 0.74 0.92 1.08 1.03 1.01 1.08 1.06 0.99 1.03 1.10 1.09 0.98 0.87 0.89 0.90 0.86 0.94 1.10 1.13 1.01 0.89 0.88 0.98 1.11 1.21 1.32 1.46 1.67
0.42 0.50 0.56 0.60 0.66 0.69 0.71 0.75 0.80 0.83 0.98 0.94 0.81 0.79 0.81 0.91 1.06 1.19 1.16 1.09 1.08 1.09 1.21 1.27 1.18 1.08 1.02 0.89 0.77 0.70 0.74 0.88 1.01 0.96 0.96 0.95 0.91 0.93 1.00 1.10 1.31 1.45 1.59
0.45 0.49 0.57 0.63 0.65 0.66 0.65 0.69 0.80 0.84 0.89 0.87 0.82 0.82 0.80 0.94 1.07 1.12 1.19 1.21 1.23 1.31 1.36 1.28 1.06 0.92 0.88 0.83 0.79 0.75 0.71 0.74 0.80 0.88 0.93 0.95 0.96 0.97 1.00 1.02 1.16 1.39 1.53
0.46 0.50 0.55 0.62 0.61 0.59 0.57 0.58 0.65 0.77 0.88 0.87 0.84 0.83 0.85 0.92 0.96 1.04 1.15 1.24 1.28 1.30 1.22 1.01 0.85 0.78 0.76 0.75 0.74 0.71 0.68 0.64 0.69 0.78 0.82 0.87 0.93 0.97 0.99 1.02 1.08 1.22 1.38
0.43 0.51 0.54 0.57 0.59 0.58 0.57 0.57 0.59 0.65 0.75 0.81 0.84 0.84 0.84 0.88 0.92 1.01 1.14 1.28 1.31 1.18 1.00 0.90 0.82 0.75 0.73 0.76 0.76 0.74 0.71 0.67 0.71 0.74 0.75 0.77 0.85 0.96 0.97 0.96 1.01 1.13 1.27
0.44 0.46 0.47 0.52 0.57 0.60 0.60 0.62 0.63 0.65 0.68 0.73 0.78 0.90 0.98 0.98 1.01 1.05 1.10 1.08 1.04 0.96 0.90 0.87 0.84 0.81 0.80 0.80 0.82 0.81 0.79 0.77 0.73 0.74 0.74 0.74 0.75 0.84 0.87 0.84 0.88 1.00 1.16
0.46 0.54 0.52 0.53 0.58 0.61 0.62 0.66 0.70 0.73 0.75 0.75 0.77 0.86 1.03 1.19 1.17 1.13 1.04 0.98 0.96 0.87 0.83 0.88 0.87 0.87 0.87 0.88 0.88 0.88 0.85 0.79 0.75 0.75 0.72 0.71 0.72 0.76 0.79 0.79 0.84 0.91 0.97
0.45 0.51 0.58 0.56 0.56 0.59 0.63 0.67 0.72 0.77 0.79 0.75 0.71 0.80 1.05 1.18 1.10 0.96 0.92 0.94 1.00 0.99 0.94 0.93 0.92 0.91 0.91 0.93 0.93 0.90 0.85 0.78 0.72 0.71 0.71 0.70 0.72 0.74 0.74 0.77 0.80 0.85 0.91
0.48 0.51 0.53 0.54 0.56 0.61 0.66 0.69 0.74 0.79 0.79 0.77 0.76 0.82 0.96 0.95 0.94 0.93 0.89 0.90 0.97 1.03 1.05 1.06 1.02 0.96 0.97 1.01 1.02 0.99 0.88 0.77 0.69 0.69 0.71 0.70 0.70 0.71 0.73 0.75 0.74 0.76 0.84
0.53 0.55 0.57 0.55 0.56 0.68 0.72 0.70 0.73 0.78 0.81 0.81 0.82 0.83 0.87 0.88 0.89 0.92 0.94 0.96 1.01 1.04 1.02 1.04 1.03 0.96 0.92 0.93 0.94 0.98 0.96 0.81 0.71 0.73 0.79 0.77 0.73 0.72 0.72 0.73 0.72 0.74 0.78
0.59 0.62 0.61 0.58 0.58 0.64 0.70 0.73 0.75 0.78 0.81 0.83 0.83 0.84 0.85 0.86 0.87 0.89 0.94 1.00 1.04 1.03 1.00 1.00 0.97 0.92 0.89 0.88 0.85 0.83 0.82 0.81 0.82 0.83 0.83 0.84 0.79 0.74 0.75 0.76 0.73 0.74 0.79
0.63 0.64 0.64 0.63 0.63 0.65 0.70 0.75 0.76 0.77 0.80 0.81 0.83 0.84 0.84 0.87 0.89 0.89 0.91 0.95 0.98 0.97 0.93 0.93 0.93 0.93 0.90 0.86 0.82 0.79 0.84 0.89 0.93 1.01 1.03 0.97 0.86 0.79 0.79 0.79 0.75 0.74 0.78
0.62 0.63 0.65 0.67 0.68 0.69 0.74 0.80 0.78 0.77 0.81 0.81 0.82 0.84 0.86 0.89 0.89 0.86 0.85 0.87 0.90 0.88 0.85 0.85 0.87 0.90 0.89 0.88 0.87 0.91 0.96 0.93 0.94 1.01 1.10 1.09 0.93 0.80 0.80 0.81 0.76 0.77 0.79